Time,TemperatureF,DewpointF,PressureIn,WindDirection,WindDirectionDegrees,WindSpeedMPH,WindSpeedGustMPH,Humidity,HourlyPrecipIn,Conditions,Clouds,dailyrainin,SoftwareType,DateUTC
2013-01-10 00:03:00,28.0,21.0,-100.00,SE,145,6.0,7.0,73,0.00,,,0.00,,2013-01-10 00:03:00,
2013-01-10 00:12:00,27.0,19.0,-100.00,SSE,160,6.0,9.0,75,0.00,,,0.00,,2013-01-10 00:12:00,
2013-01-10 00:22:00,26.0,19.0,-100.00,SSE,150,6.0,6.0,75,0.00,,,0.00,,2013-01-10 00:22:00,
2013-01-10 00:32:00,26.0,19.0,-100.00,SSE,150,7.0,7.0,76,0.00,,,0.00,,2013-01-10 00:32:00,
2013-01-10 00:42:00,27.0,21.0,-100.00,SE,135,5.0,7.0,76,0.00,,,0.00,,2013-01-10 00:42:00,
2013-01-10 00:52:00,26.0,19.0,-100.00,SE,145,6.0,6.0,76,0.00,,,0.00,,2013-01-10 00:52:00,
2013-01-10 01:02:00,25.0,19.0,-100.00,SSE,165,7.0,9.0,78,0.00,,,0.00,,2013-01-10 01:02:00,
2013-01-10 01:12:00,23.0,18.0,-100.00,South,170,9.0,10.0,79,0.00,,,0.00,,2013-01-10 01:12:00,
2013-01-10 01:22:00,24.0,19.0,-100.00,South,170,8.0,10.0,80,0.00,,,0.00,,2013-01-10 01:22:00,
2013-01-10 01:32:00,26.0,21.0,-100.00,South,170,11.0,12.0,81,0.00,,,0.00,,2013-01-10 01:32:00,
2013-01-10 01:42:00,27.0,21.0,-100.00,SSE,165,9.0,12.0,80,0.00,,,0.00,,2013-01-10 01:42:00,
2013-01-10 01:52:00,26.0,21.0,-100.00,SSE,155,7.0,11.0,80,0.00,,,0.00,,2013-01-10 01:52:00,
2013-01-10 02:02:00,26.0,21.0,-100.00,SSE,150,7.0,7.0,81,0.00,,,0.00,,2013-01-10 02:02:00,
2013-01-10 02:12:00,25.0,21.0,-100.00,South,175,7.0,9.0,81,0.00,,,0.00,,2013-01-10 02:12:00,
2013-01-10 02:22:00,26.0,21.0,-100.00,South,175,9.0,10.0,82,0.00,,,0.00,,2013-01-10 02:22:00,
2013-01-10 02:32:00,26.0,21.0,-100.00,South,175,11.0,14.0,82,0.00,,,0.00,,2013-01-10 02:32:00,
2013-01-10 02:42:00,26.0,21.0,-100.00,South,175,11.0,14.0,82,0.00,,,0.00,,2013-01-10 02:42:00,
2013-01-10 02:52:00,26.0,21.0,-100.00,South,175,11.0,14.0,82,0.00,,,0.00,,2013-01-10 02:52:00,
2013-01-10 03:02:00,26.0,21.0,-100.00,South,180,11.0,12.0,84,0.00,,,0.00,,2013-01-10 03:02:00,
2013-01-10 03:12:00,26.0,23.0,-100.00,South,185,12.0,14.0,85,0.00,,,0.00,,2013-01-10 03:12:00,
2013-01-10 03:22:00,27.0,23.0,-100.00,South,175,12.0,14.0,84,0.00,,,0.00,,2013-01-10 03:22:00,
2013-01-10 03:32:00,27.0,23.0,-100.00,South,180,13.0,16.0,84,0.00,,,0.00,,2013-01-10 03:32:00,
2013-01-10 03:42:00,27.0,23.0,-100.00,South,175,14.0,16.0,83,0.00,,,0.00,,2013-01-10 03:42:00,
2013-01-10 03:52:00,27.0,23.0,-100.00,South,170,12.0,16.0,83,0.00,,,0.00,,2013-01-10 03:52:00,
2013-01-10 04:02:00,27.0,23.0,-100.00,South,170,11.0,14.0,82,0.00,,,0.00,,2013-01-10 04:02:00,
2013-01-10 04:12:00,27.0,23.0,-100.00,South,170,12.0,15.0,81,0.00,,,0.00,,2013-01-10 04:12:00,
2013-01-10 04:22:00,27.0,23.0,-100.00,South,170,11.0,13.0,81,0.00,,,0.00,,2013-01-10 04:22:00,
2013-01-10 04:32:00,27.0,21.0,-100.00,South,170,12.0,13.0,81,0.00,,,0.00,,2013-01-10 04:32:00,
2013-01-10 04:42:00,27.0,21.0,-100.00,South,175,12.0,17.0,79,0.00,,,0.00,,2013-01-10 04:42:00,
2013-01-10 04:52:00,27.0,21.0,-100.00,South,175,12.0,16.0,79,0.00,,,0.00,,2013-01-10 04:52:00,
2013-01-10 05:03:00,27.0,21.0,-100.00,South,175,12.0,15.0,78,0.00,,,0.00,,2013-01-10 05:03:00,
2013-01-10 05:12:00,27.0,21.0,-100.00,South,170,12.0,15.0,77,0.00,,,0.00,,2013-01-10 05:12:00,
2013-01-10 05:22:00,27.0,21.0,-100.00,South,180,12.0,14.0,75,0.00,,,0.00,,2013-01-10 05:22:00,
2013-01-10 05:33:00,28.0,21.0,-100.00,South,175,12.0,17.0,73,0.00,,,0.00,,2013-01-10 05:33:00,
2013-01-10 05:42:00,28.0,21.0,-100.00,South,175,13.0,16.0,73,0.00,,,0.00,,2013-01-10 05:42:00,
2013-01-10 05:52:00,29.0,21.0,-100.00,South,180,14.0,19.0,72,0.00,,,0.00,,2013-01-10 05:52:00,
2013-01-10 06:02:00,30.0,23.0,-100.00,South,180,14.0,20.0,72,0.00,,,0.00,,2013-01-10 06:02:00,
2013-01-10 06:12:00,30.0,23.0,-100.00,South,180,14.0,18.0,73,0.00,,,0.00,,2013-01-10 06:12:00,
2013-01-10 06:22:00,32.0,25.0,-100.00,South,190,15.0,19.0,73,0.00,,,0.00,,2013-01-10 06:22:00,
2013-01-10 06:32:00,32.0,25.0,-100.00,South,185,15.0,19.0,72,0.00,,,0.00,,2013-01-10 06:32:00,
2013-01-10 06:42:00,32.0,25.0,-100.00,South,185,17.0,19.0,71,0.00,,,0.00,,2013-01-10 06:42:00,
2013-01-10 06:52:00,33.0,25.0,-100.00,South,180,17.0,19.0,71,0.00,,,0.00,,2013-01-10 06:52:00,
2013-01-10 07:02:00,33.0,25.0,-100.00,South,185,16.0,21.0,72,0.00,,,0.00,,2013-01-10 07:02:00,
2013-01-10 07:12:00,33.0,25.0,-100.00,South,185,16.0,21.0,72,0.00,,,0.00,,2013-01-10 07:12:00,
2013-01-10 07:22:00,33.0,25.0,-100.00,South,185,15.0,19.0,71,0.00,,,0.00,,2013-01-10 07:22:00,
2013-01-10 07:32:00,34.0,25.0,-100.00,South,185,16.0,22.0,71,0.00,,,0.00,,2013-01-10 07:32:00,
2013-01-10 07:42:00,34.0,25.0,-100.00,South,185,17.0,23.0,70,0.00,,,0.00,,2013-01-10 07:42:00,
2013-01-10 07:52:00,35.0,25.0,-100.00,South,190,19.0,24.0,68,0.00,,,0.00,,2013-01-10 07:52:00,
2013-01-10 08:01:00,35.0,25.0,-100.00,South,190,19.0,24.0,67,0.00,,,0.00,,2013-01-10 08:01:00,
2013-01-10 08:11:00,35.0,25.0,-100.00,South,185,17.0,23.0,66,0.00,,,0.00,,2013-01-10 08:11:00,
2013-01-10 08:22:00,36.0,25.0,-100.00,South,185,19.0,23.0,65,0.00,,,0.00,,2013-01-10 08:22:00,
2013-01-10 08:32:00,36.0,25.0,-100.00,South,185,17.0,22.0,64,0.00,,,0.00,,2013-01-10 08:32:00,
2013-01-10 08:42:00,36.0,25.0,-100.00,South,190,16.0,21.0,64,0.00,,,0.00,,2013-01-10 08:42:00,
2013-01-10 08:52:00,36.0,25.0,-100.00,South,185,17.0,21.0,64,0.00,,,0.00,,2013-01-10 08:52:00,
2013-01-10 09:02:00,36.0,25.0,-100.00,South,190,17.0,22.0,63,0.00,,,0.00,,2013-01-10 09:02:00,
2013-01-10 09:12:00,36.0,25.0,-100.00,South,185,16.0,21.0,62,0.00,,,0.00,,2013-01-10 09:12:00,
2013-01-10 09:22:00,36.0,25.0,-100.00,South,190,15.0,21.0,62,0.00,,,0.00,,2013-01-10 09:22:00,
2013-01-10 09:32:00,36.0,23.0,-100.00,SSW,195,17.0,21.0,61,0.00,,,0.00,,2013-01-10 09:32:00,
2013-01-10 09:42:00,36.0,25.0,-100.00,SSW,195,19.0,23.0,61,0.00,,,0.00,,2013-01-10 09:42:00,
2013-01-10 09:52:00,36.0,23.0,-100.00,South,190,19.0,25.0,61,0.00,,,0.00,,2013-01-10 09:52:00,
2013-01-10 10:02:00,36.0,25.0,-100.00,South,190,17.0,22.0,61,0.00,,,0.00,,2013-01-10 10:02:00,
2013-01-10 10:12:00,36.0,25.0,-100.00,South,190,18.0,22.0,60,0.00,,,0.00,,2013-01-10 10:12:00,
2013-01-10 10:22:00,36.0,25.0,-100.00,SSW,195,17.0,21.0,60,0.00,,,0.00,,2013-01-10 10:22:00,
2013-01-10 10:32:00,36.0,25.0,-100.00,South,190,17.0,23.0,60,0.00,,,0.00,,2013-01-10 10:32:00,
2013-01-10 10:42:00,36.0,23.0,-100.00,South,190,16.0,21.0,61,0.00,,,0.00,,2013-01-10 10:42:00,
2013-01-10 10:52:00,36.0,23.0,-100.00,SSW,195,16.0,21.0,60,0.00,,,0.00,,2013-01-10 10:52:00,
2013-01-10 11:02:00,36.0,23.0,-100.00,SSW,200,16.0,21.0,60,0.00,,,0.00,,2013-01-10 11:02:00,
2013-01-10 11:12:00,36.0,23.0,-100.00,South,190,16.0,21.0,60,0.00,,,0.00,,2013-01-10 11:12:00,
2013-01-10 11:22:00,36.0,23.0,-100.00,South,190,14.0,21.0,60,0.00,,,0.00,,2013-01-10 11:22:00,
2013-01-10 11:32:00,36.0,23.0,-100.00,South,185,14.0,21.0,59,0.00,,,0.00,,2013-01-10 11:32:00,
2013-01-10 11:42:00,36.0,23.0,-100.00,South,190,14.0,19.0,60,0.00,,,0.00,,2013-01-10 11:42:00,
2013-01-10 11:52:00,35.0,23.0,-100.00,South,185,13.0,18.0,61,0.00,,,0.00,,2013-01-10 11:52:00,
2013-01-10 12:02:00,35.0,23.0,-100.00,South,190,14.0,18.0,60,0.00,,,0.00,,2013-01-10 12:02:00,
2013-01-10 12:12:00,36.0,23.0,-100.00,South,190,17.0,21.0,59,0.00,,,0.00,,2013-01-10 12:12:00,
2013-01-10 12:22:00,35.0,23.0,-100.00,South,185,16.0,20.0,59,0.00,,,0.00,,2013-01-10 12:22:00,
2013-01-10 12:32:00,35.0,23.0,-100.00,South,180,15.0,22.0,59,0.00,,,0.00,,2013-01-10 12:32:00,
2013-01-10 12:42:00,35.0,23.0,-100.00,South,185,16.0,21.0,58,0.00,,,0.00,,2013-01-10 12:42:00,
2013-01-10 12:52:00,36.0,21.0,-100.00,South,180,16.0,22.0,57,0.00,,,0.00,,2013-01-10 12:52:00,
2013-01-10 13:02:00,35.0,23.0,-100.00,South,185,17.0,23.0,58,0.00,,,0.00,,2013-01-10 13:02:00,
2013-01-10 13:12:00,35.0,23.0,-100.00,South,180,17.0,22.0,59,0.00,,,0.00,,2013-01-10 13:12:00,
2013-01-10 13:22:00,35.0,23.0,-100.00,South,180,17.0,21.0,60,0.00,,,0.00,,2013-01-10 13:22:00,
2013-01-10 13:32:00,35.0,23.0,-100.00,South,185,17.0,23.0,60,0.00,,,0.00,,2013-01-10 13:32:00,
2013-01-10 13:42:00,35.0,23.0,-100.00,South,185,17.0,21.0,60,0.00,,,0.00,,2013-01-10 13:42:00,
2013-01-10 13:52:00,34.0,23.0,-100.00,South,180,17.0,22.0,61,0.00,,,0.00,,2013-01-10 13:52:00,
2013-01-10 14:02:00,34.0,23.0,-100.00,South,180,16.0,22.0,62,0.00,,,0.00,,2013-01-10 14:02:00,
2013-01-10 14:12:00,34.0,23.0,-100.00,South,180,16.0,24.0,62,0.00,,,0.00,,2013-01-10 14:12:00,
2013-01-10 14:22:00,33.0,23.0,-100.00,South,180,13.0,19.0,64,0.00,,,0.00,,2013-01-10 14:22:00,
2013-01-10 14:32:00,33.0,23.0,-100.00,South,175,15.0,18.0,65,0.00,,,0.00,,2013-01-10 14:32:00,
2013-01-10 14:43:00,33.0,23.0,-100.00,South,180,14.0,17.0,65,0.00,,,0.00,,2013-01-10 14:43:00,
2013-01-10 14:53:00,34.0,23.0,-100.00,South,175,14.0,17.0,63,0.00,,,0.00,,2013-01-10 14:53:00,
2013-01-10 15:03:00,34.0,23.0,-100.00,South,175,13.0,20.0,63,0.00,,,0.00,,2013-01-10 15:03:00,
2013-01-10 15:12:00,34.0,23.0,-100.00,South,175,12.0,20.0,63,0.00,,,0.00,,2013-01-10 15:12:00,
2013-01-10 15:22:00,34.0,23.0,-100.00,South,170,14.0,17.0,64,0.00,,,0.00,,2013-01-10 15:22:00,
2013-01-10 15:32:00,33.0,23.0,-100.00,South,175,15.0,18.0,64,0.00,,,0.00,,2013-01-10 15:32:00,
2013-01-10 15:43:00,34.0,23.0,-100.00,South,175,14.0,19.0,63,0.00,,,0.00,,2013-01-10 15:43:00,
2013-01-10 15:53:00,34.0,23.0,-100.00,SSE,165,12.0,18.0,63,0.00,,,0.00,,2013-01-10 15:53:00,
2013-01-10 16:02:00,34.0,23.0,-100.00,SSE,165,14.0,17.0,62,0.00,,,0.00,,2013-01-10 16:02:00,
2013-01-10 16:12:00,34.0,23.0,-100.00,South,170,13.0,17.0,61,0.00,,,0.00,,2013-01-10 16:12:00,
2013-01-10 16:22:00,34.0,23.0,-100.00,South,175,15.0,17.0,62,0.00,,,0.00,,2013-01-10 16:22:00,
2013-01-10 16:33:00,34.0,23.0,-100.00,South,175,16.0,19.0,62,0.00,,,0.00,,2013-01-10 16:33:00,
2013-01-10 16:42:00,35.0,23.0,-100.00,South,175,13.0,18.0,60,0.00,,,0.00,,2013-01-10 16:42:00,
2013-01-10 16:52:00,35.0,23.0,-100.00,South,180,12.0,17.0,59,0.00,,,0.00,,2013-01-10 16:52:00,
2013-01-10 17:03:00,35.0,21.0,-100.00,South,175,9.0,14.0,58,0.00,,,0.00,,2013-01-10 17:03:00,
2013-01-10 17:12:00,35.0,21.0,-100.00,South,175,9.0,13.0,58,0.00,,,0.00,,2013-01-10 17:12:00,
2013-01-10 17:22:00,36.0,23.0,-100.00,SSE,160,7.0,11.0,58,0.00,,,0.00,,2013-01-10 17:22:00,
2013-01-10 17:33:00,36.0,23.0,-100.00,SSE,160,9.0,12.0,57,0.00,,,0.00,,2013-01-10 17:33:00,
2013-01-10 17:42:00,37.0,23.0,-100.00,SSE,160,9.0,12.0,56,0.00,,,0.00,,2013-01-10 17:42:00,
2013-01-10 17:53:00,37.0,23.0,-100.00,SSE,155,9.0,13.0,56,0.00,,,0.00,,2013-01-10 17:53:00,
2013-01-10 18:03:00,37.0,23.0,-100.00,SSE,155,9.0,12.0,57,0.00,,,0.00,,2013-01-10 18:03:00,
2013-01-10 18:12:00,37.0,23.0,-100.00,SSE,165,9.0,12.0,56,0.00,,,0.00,,2013-01-10 18:12:00,
2013-01-10 18:23:00,37.0,23.0,-100.00,SSE,160,11.0,14.0,55,0.00,,,0.00,,2013-01-10 18:23:00,
2013-01-10 18:33:00,38.0,23.0,-100.00,SSE,165,12.0,16.0,54,0.00,,,0.00,,2013-01-10 18:33:00,
2013-01-10 18:43:00,38.0,23.0,-100.00,SSE,155,9.0,13.0,53,0.00,,,0.00,,2013-01-10 18:43:00,
2013-01-10 18:52:00,38.0,23.0,-100.00,SSE,155,11.0,14.0,52,0.00,,,0.00,,2013-01-10 18:52:00,
2013-01-10 19:03:00,38.0,23.0,-100.00,SSE,150,12.0,14.0,52,0.00,,,0.00,,2013-01-10 19:03:00,
2013-01-10 19:12:00,38.0,23.0,-100.00,SSE,155,12.0,18.0,52,0.00,,,0.00,,2013-01-10 19:12:00,
2013-01-10 19:23:00,38.0,23.0,-100.00,SE,145,11.0,13.0,53,0.00,,,0.00,,2013-01-10 19:23:00,
2013-01-10 19:33:00,38.0,23.0,-100.00,SSE,155,11.0,16.0,52,0.00,,,0.00,,2013-01-10 19:33:00,
2013-01-10 19:43:00,38.0,21.0,-100.00,SSE,150,12.0,16.0,51,0.00,,,0.00,,2013-01-10 19:43:00,
2013-01-10 19:52:00,38.0,21.0,-100.00,SSE,155,12.0,18.0,50,0.00,,,0.00,,2013-01-10 19:52:00,
2013-01-10 20:03:00,38.0,21.0,-100.00,SSE,150,12.0,16.0,49,0.00,,,0.00,,2013-01-10 20:03:00,
2013-01-10 20:12:00,39.0,21.0,-100.00,SSE,155,14.0,19.0,47,0.00,,,0.00,,2013-01-10 20:12:00,
2013-01-10 20:23:00,39.0,21.0,-100.00,SE,145,10.0,16.0,47,0.00,,,0.00,,2013-01-10 20:23:00,
2013-01-10 20:33:00,39.0,21.0,-100.00,SSE,155,9.0,12.0,47,0.00,,,0.00,,2013-01-10 20:33:00,
2013-01-10 20:42:00,39.0,21.0,-100.00,SE,140,9.0,11.0,47,0.00,,,0.00,,2013-01-10 20:42:00,
2013-01-10 20:53:00,39.0,21.0,-100.00,SE,135,11.0,14.0,48,0.00,,,0.00,,2013-01-10 20:53:00,
2013-01-10 21:03:00,39.0,19.0,-100.00,SE,140,12.0,16.0,46,0.00,,,0.00,,2013-01-10 21:03:00,
2013-01-10 21:12:00,39.0,19.0,-100.00,SE,140,12.0,18.0,46,0.00,,,0.00,,2013-01-10 21:12:00,
2013-01-10 21:23:00,39.0,19.0,-100.00,SE,125,9.0,14.0,46,0.00,,,0.00,,2013-01-10 21:23:00,
2013-01-10 21:33:00,38.0,21.0,-100.00,SE,135,12.0,14.0,48,0.00,,,0.00,,2013-01-10 21:33:00,
2013-01-10 21:42:00,38.0,19.0,-100.00,SE,140,12.0,16.0,48,0.00,,,0.00,,2013-01-10 21:42:00,
2013-01-10 21:52:00,38.0,21.0,-100.00,SE,135,12.0,15.0,49,0.00,,,0.00,,2013-01-10 21:52:00,
2013-01-10 22:03:00,38.0,21.0,-100.00,SE,130,9.0,14.0,50,0.00,,,0.00,,2013-01-10 22:03:00,
2013-01-10 22:12:00,38.0,21.0,-100.00,ESE,120,9.0,11.0,50,0.00,,,0.00,,2013-01-10 22:12:00,
2013-01-10 22:25:00,37.0,21.0,-100.00,SE,135,12.0,17.0,53,0.00,,,0.00,,2013-01-10 22:25:00,
2013-01-10 22:33:00,37.0,23.0,-100.00,SE,135,14.0,21.0,57,0.00,,,0.00,,2013-01-10 22:33:00,
2013-01-10 22:43:00,36.0,25.0,-100.00,SE,130,9.0,17.0,61,0.00,,,0.00,,2013-01-10 22:43:00,
2013-01-10 23:02:00,35.0,27.0,-100.00,ESE,120,10.0,17.0,69,0.00,,,0.00,,2013-01-10 23:02:00,
2013-01-10 23:12:00,35.0,27.0,-100.00,SE,130,11.0,17.0,71,0.00,,,0.00,,2013-01-10 23:12:00,
2013-01-10 23:22:00,35.0,28.0,-100.00,ESE,115,10.0,16.0,75,0.00,,,0.00,,2013-01-10 23:22:00,
2013-01-10 23:33:00,35.0,28.0,-100.00,SE,125,12.0,15.0,76,0.00,,,0.00,,2013-01-10 23:33:00,
2013-01-10 23:42:00,35.0,28.0,-100.00,SE,135,12.0,16.0,79,0.00,,,0.00,,2013-01-10 23:42:00,
2013-01-10 23:53:00,34.0,28.0,-100.00,ESE,120,11.0,15.0,82,0.00,,,0.00,,2013-01-10 23:53:00,